Cloud_Cover
0 0 8 12 12 8 0 0 0 0 0 0 0 0 0 0 0 0 0 0 48 76 80 92 92 92 92 92 92 92 92 92 92 92 92 88 88 92 92 92 88 80 80 76 88 92 92 92 92 92 88 68 64 64 68 76 76 64 48 36 24 24 32 36 32 24 24 24 32
0 0 8 12 12 8 0 0 0 0 0 0 0 0 0 0 0 0 0 0 56 68 76 92 92 92 92 92 92 92 92 80 80 80 88 88 92 92 92 92 92 92 92 92 92 92 92 92 92 88 80 64 56 64 76 76 64 48 44 32 20 24 32 32 32 24 24 24 24
20 12 12 12 12 8 0 0 0 0 0 0 0 0 0 0 0 0 0 0 32 44 64 92 92 92 92 92 92 92 92 92 88 80 80 92 92 92 92 92 88 92 92 92 92 92 92 92 80 76 68 56 56 64 76 64 48 36 32 24 24 24 32 32 24 24 24 20 20
36 32 24 24 20 20 12 8 0 0 0 0 0 0 0 0 0 0 0 0 20 44 68 92 92 92 92 92 92 92 92 92 88 88 88 92 92 92 92 88 88 88 88 92 92 88 68 48 44 44 36 36 64 76 68 64 44 32 32 24 24 32 32 24 20 12 12 20 20
36 36 32 32 32 32 32 20 12 0 0 0 0 0 0 0 0 0 0 0 20 48 76 92 92 92 92 92 92 88 88 92 92 92 92 92 92 92 92 88 88 88 88 88 68 64 56 44 36 44 64 68 76 64 56 48 32 24 20 24 32 32 32 32 24 20 12 20 20
24 32 32 24 44 48 48 36 24 12 0 0 0 0 0 0 0 0 0 0 24 68 92 92 92 92 92 92 92 88 80 92 92 92 92 92 92 92 88 88 88 88 88 92 64 36 32 32 32 48 76 80 76 64 56 44 32 32 32 32 36 36 44 44 32 24 24 20 20
12 20 24 32 56 64 56 44 36 20 0 0 0 0 0 0 0 0 0 0 20 64 92 92 92 92 88 76 76 76 80 92 92 92 92 92 92 92 92 92 92 92 88 48 44 32 24 24 68 80 80 76 64 48 44 36 32 36 44 32 36 44 44 48 44 36 24 24 20
12 20 24 24 44 48 48 44 36 20 8 0 0 0 0 0 0 0 0 0 32 68 92 92 92 88 80 68 76 76 80 92 92 92 92 92 88 92 92 92 92 92 76 36 20 12 32 68 80 80 76 64 48 44 36 44 48 48 56 56 48 48 56 48 36 36 32 24 20
0 0 12 36 32 44 48 44 36 24 8 0 0 0 0 0 0 8 12 12 76 92 92 92 92 92 92 92 92 92 92 92 92 88 88 80 80 88 88 92 92 68 36 20 12 36 68 76 68 56 48 36 44 44 48 56 56 56 48 56 64 64 56 44 36 36 36 36 24
0 0 0 12 36 48 56 56 48 32 8 0 0 0 0 0 12 56 92 92 92 92 92 92 92 92 92 92 92 92 92 92 92 92 88 88 88 92 92 88 64 36 24 12 0 44 76 64 48 36 32 32 32 36 48 48 48 48 56 64 64 64 56 48 44 36 32 32 24
0 0 0 0 32 64 88 92 68 44 24 0 0 0 0 0 68 92 92 92 92 92 92 92 92 92 92 92 92 92 92 92 92 92 92 92 92 92 88 68 36 20 12 8 12 48 76 44 36 36 32 24 32 36 44 44 44 48 56 64 64 64 56 48 44 36 32 24 20
0 0 0 0 36 76 92 92 56 36 24 0 0 0 0 20 76 92 92 92 92 92 92 92 92 92 92 92 92 92 92 92 92 92 92 92 92 92 88 80 32 12 8 12 64 76 64 36 32 32 32 32 36 44 44 44 48 56 56 56 56 56 48 44 44 36 32 24 20
0 0 0 0 56 88 92 80 56 36 24 8 0 12 36 88 92 92 92 92 92 92 92 92 92 92 92 92 92 92 92 92 92 92 92 92 92 76 56 36 12 8 24 68 68 64 48 44 36 32 32 36 44 44 44 36 48 48 48 44 36 44 44 44 36 32 24 20 20
0 0 12 32 80 92 80 64 48 24 12 24 24 56 88 92 92 92 92 88 88 88 88 92 92 92 92 88 80 88 92 92 92 92 92 92 76 56 44 20 8 32 64 76 64 48 44 36 36 44 44 36 44 44 44 44 48 48 44 44 44 36 24 24 32 32 24 20 20
0 20 56 80 88 76 64 56 36 20 8 32 64 80 88 92 92 92 88 76 76 76 76 80 80 80 80 80 80 92 92 92 92 88 80 80 56 36 24 8 8 44 80 64 48 44 36 44 44 48 48 32 36 36 44 48 48 48 44 24 36 32 24 32 32 32 32 24 20
20 56 92 92 76 64 56 44 24 24 32 44 64 76 76 80 80 80 80 76 76 76 80 88 80 76 76 76 88 92 92 92 92 76 56 48 36 24 12 0 32 56 76 56 44 44 44 44 44 48 44 32 32 36 44 48 48 44 36 32 36 36 36 44 36 36 36 32 24
76 88 92 92 76 68 64 44 32 44 56 64 64 68 68 76 80 80 80 76 76 76 80 80 80 80 76 80 92 92 92 92 80 68 56 36 24 12 12 32 64 76 68 44 32 36 44 44 48 36 32 24 36 44 56 48 44 36 36 36 36 44 48 44 44 36 36 32 32
92 92 92 92 88 88 80 64 48 48 48 64 68 68 76 80 92 88 80 76 76 80 80 80 80 80 80 88 80 80 80 80 64 56 48 36 20 20 36 68 76 76 64 36 36 44 48 48 32 24 20 24 44 48 48 48 44 36 36 36 36 44 48 44 36 36 36 32 24
92 92 92 92 92 92 88 68 56 56 64 68 68 76 88 92 92 92 88 80 88 92 92 88 88 88 88 80 68 68 68 68 64 56 48 32 20 32 56 76 68 64 56 44 56 56 48 36 24 24 32 32 48 56 48 44 44 36 36 48 48 48 48 36 36 32 32 32 24
92 92 92 92 92 92 88 68 64 68 76 80 88 92 92 92 92 92 92 92 92 92 92 92 92 92 92 76 68 68 68 68 64 56 44 24 32 48 76 76 68 68 64 64 64 56 44 24 32 36 44 44 56 56 48 36 36 44 48 64 64 56 48 32 36 36 32 24 24
92 92 92 92 92 92 88 76 68 80 92 92 92 92 92 92 92 92 92 92 92 92 92 92 92 92 92 88 80 76 68 68 56 44 32 20 36 56 76 76 80 80 80 88 80 64 44 36 56 64 64 56 56 56 48 36 48 56 64 68 56 48 36 32 36 44 36 24 20
92 92 92 92 92 92 88 76 76 80 92 92 92 92 92 92 92 92 92 92 92 92 92 92 92 92 92 92 88 76 64 56 44 32 24 36 56 68 76 80 80 88 92 92 76 56 56 68 80 80 76 64 56 48 44 32 64 68 64 56 48 36 32 24 32 36 32 24 20
92 92 92 92 92 88 80 76 76 80 88 92 92 92 92 92 92 92 92 92 92 92 92 92 92 92 92 92 80 64 48 36 32 32 36 44 64 68 76 92 92 92 92 76 68 68 76 88 80 76 68 56 48 48 56 68 76 76 64 48 44 32 24 32 32 24 20 20 12
92 92 92 92 80 76 68 76 80 88 92 92 92 92 92 92 88 92 92 88 80 80 80 88 92 92 92 92 68 56 44 36 44 44 36 32 64 76 88 92 92 92 92 88 88 88 88 88 88 76 64 48 68 76 80 80 76 68 64 48 44 36 32 32 24 20 12 12 8
92 92 88 76 68 76 80 88 88 92 92 92 92 88 88 88 88 88 88 80 76 76 88 92 92 92 92 92 92 68 44 48 44 36 32 44 68 88 92 92 92 92 92 92 92 92 88 88 88 76 76 88 92 88 80 76 68 64 56 48 44 36 36 32 20 12 12 8 0
92 88 76 76 80 88 92 92 92 92 92 92 92 88 88 88 88 88 80 80 88 92 92 92 92 92 88 68 68 64 48 44 32 24 36 80 92 92 92 92 92 92 88 92 92 92 88 88 88 88 88 92 92 88 76 68 64 56 48 44 36 36 32 20 20 12 8 8 0
80 80 80 88 92 92 92 92 92 92 92 92 92 88 80 80 80 80 88 92 92 92 92 92 92 88 80 76 76 68 56 24 44 56 76 92 92 92 92 92 92 92 92 88 88 88 88 88 92 92 92 92 80 76 76 64 56 48 44 36 32 24 20 20 20 12 8 0 0
80 88 92 92 92 92 92 92 92 92 92 92 92 88 80 76 80 80 88 92 92 92 92 92 92 88 80 76 76 56 44 68 76 88 92 92 92 92 92 92 92 88 88 92 88 88 92 92 92 92 92 88 80 76 68 64 56 44 36 36 24 24 20 20 20 12 8 0 0
88 92 92 92 92 92 92 92 92 92 92 92 92 88 80 80 92 92 92 92 92 92 92 88 80 76 68 68 68 48 44 80 92 92 92 92 92 92 92 92 92 92 88 92 92 92 92 92 92 88 80 88 92 88 76 56 48 44 44 32 32 24 20 24 20 12 8 0 0
92 92 92 92 92 92 92 92 92 92 92 92 92 92 92 92 92 92 92 92 80 80 80 76 68 68 64 48 24 44 68 76 92 92 92 92 92 92 92 92 92 92 92 92 92 92 92 92 88 88 88 88 88 80 68 56 48 44 36 32 24 24 24 20 8 0 0 0 0
92 92 88 92 92 92 92 92 92 92 92 92 92 92 92 92 92 92 92 92 88 80 76 64 56 36 24 12 44 64 76 88 92 92 92 92 92 92 92 92 92 92 92 92 92 92 88 80 80 88 88 80 76 64 64 64 56 44 44 36 32 24 12 8 8 8 8 8 8
88 92 92 92 92 92 92 92 92 92 92 92 92 92 92 92 92 92 92 80 64 64 64 48 36 24 20 20 56 76 88 92 92 92 92 92 92 92 92 92 92 92 92 92 92 88 88 88 88 88 76 68 64 64 64 56 48 48 44 44 24 20 12 8 8 8 8 0 8
92 92 92 92 92 92 92 92 92 92 92 92 92 92 92 92 92 92 80 76 64 56 48 44 32 48 76 88 88 88 92 92 92 92 92 92 92 92 92 92 92 92 92 92 88 80 80 88 80 76 68 56 64 64 56 48 48 44 44 32 24 20 12 12 12 12 12 12 8
92 92 92 92 92 92 92 92 92 92 92 92 92 92 92 92 92 88 80 68 68 56 36 36 56 76 88 88 92 92 92 92 92 92 92 92 92 92 92 92 92 92 88 80 80 80 80 80 68 68 76 68 64 56 48 44 44 36 32 24 20 12 12 12 12 12 8 0 8
92 92 92 92 92 92 92 92 92 92 92 92 92 92 92 92 88 80 80 68 64 56 56 68 88 88 88 92 92 92 92 92 92 92 92 92 92 92 92 92 88 80 80 88 80 76 76 68 68 68 68 64 56 48 44 48 44 32 24 20 20 12 12 12 12 8 0 0 0
92 92 92 92 92 92 92 92 92 92 92 92 92 92 92 88 80 76 76 68 68 80 92 92 92 92 92 92 92 92 92 92 92 92 92 92 92 92 92 88 80 80 80 80 76 68 68 76 76 76 68 56 56 48 44 36 32 24 20 20 20 12 12 20 12 8 0 0 0
92 92 92 92 92 92 92 92 92 92 92 92 88 80 80 76 76 76 80 92 92 92 92 92 92 92 92 92 92 92 92 92 92 92 92 92 92 92 88 80 80 76 76 76 68 76 76 76 68 68 64 64 64 48 44 32 24 24 24 24 24 24 20 12 8 0 0 0 0
92 92 92 92 92 92 92 92 92 92 92 88 76 76 76 76 80 92 92 92 92 92 92 92 92 92 92 92 92 92 92 92 92 92 92 88 88 80 80 88 80 76 76 80 80 80 76 76 68 68 64 64 56 48 36 32 32 32 32 32 24 20 8 8 0 0 0 0 0
92 92 92 92 92 92 92 92 92 92 92 92 88 92 92 92 92 92 92 92 92 92 92 92 92 92 92 92 92 92 92 92 92 92 88 88 80 80 80 92 88 80 80 80 80 76 76 68 68 64 56 56 48 44 36 32 32 36 36 24 20 12 8 0 0 0 0 0 0
92 92 92 92 92 92 92 92 92 92 92 92 92 92 92 92 92 92 92 92 92 92 92 92 92 92 92 92 92 92 92 88 92 88 88 88 92 88 88 92 88 80 76 76 76 76 68 64 56 48 44 36 36 32 32 32 32 32 24 12 12 8 0 0 0 0 0 0 0
92 92 92 92 92 92 92 92 92 92 92 92 92 92 92 92 92 92 92 92 92 92 92 92 92 92 92 92 92 92 92 88 88 88 88 92 92 92 88 88 88 80 76 76 68 64 56 48 36 36 32 32 32 32 32 24 24 20 12 8 0 0 0 0 0 0 0 0 0